カタログに戻る

TITAN 3C TRANSTAGE DEB

LostHEO
NORAD 35502·DEBRIS·🇺🇸 United States

打ち上げ Dec 21, 1965 から Cape Canaveral Space Force Station

Loading…

次のパス (今後24時間)

TLE

古いSource: Space-Track

元期: May 16, 2026, 07:11 UTC

1 35502U 65108DH  26136.29993700  .00000297  00000-0  71973-3 0  9990
2 35502  26.6689 209.4761 6607773  68.1505 347.1469  3.03814933  1384

AllMySatでTITAN 3C TRANSTAGE DEBをリアルタイム追跡

Download on the App Store